DELTA 1 DEB, 7084

Orbit data source: Space-Track

DELTA 1 DEB, 7084 is space debris in SSO originally from a launch on Tue, 06 Nov 1973 UTC launched from the Air Force Western Test Range (AFWTR). Debris objects in space refer to the collection of defunct objects orbiting the Earth. Examples of debris include non-operational satellites, rocket bodies, and fragments generated from explosions, collisions, or faulty payload assembly.

Loading next visibility...
Identifier
7084, 1973-086CC
Orbit
SSO
Country
Flag of USUS
Related business
Manufacturer
Unknown
Mission
Spacecraft
Bus & Motor
Unknown
Mass
Unknown
Launch date (UTC)
1973-11-06 (52 years ago)
Launch vehicle
Unknown
Launch site
Air Force Western Test Range (AFWTR)
Object type
Payload
Rocket body
Debris
Shape & HBR
Unknown shape, 0.2 m
Radar Cross Section
Small (<0.1 m²)

Expand to show TLE details & history
Last TLE update: 11 hours ago

TLE from 11 hours ago
0 DELTA 1 DEB
1 07084U 73086CC  25292.81475767 -.00000022  00000-0  17033-3 0  9990
2 07084 101.8243 245.3274 0153637  65.7329 324.6738 12.25188317322844
Epoch: 2025-10-19T19:33Z
TLE epoch observation values (Epoch: 2025-10-19T19:33:15.062Z)
Latitude
28.73513°
Longitude
-83.07002°
Altitude
1,474.254 km
Speed
7.173 km/s
True Right ascension
15h 55m 04s
True Declination
28° 36' 13"
Sunlit
Object was in daylight at epoch
Visualization orbit readout
Latitude
Unknown
Longitude
Unknown
Altitude
Unknown
Speed
Unknown
Apparent Right ascension
Unknown
Apparent Declination
Unknown
Sunlit
N/A
Visualization observer readout
Local Sidereal Time
01:36:50
Azimuth
Unknown
Elevation
Unknown
Doppler factor
Unknown
Orbital elements
Apogee altitude
1,689.682 km
Perigee altitude
1,445.53 km
Semi-major axis
7,945.743 km
Eccentricity
0.01536
Inclination
101.8243°
RAAN
245.3274°
Arg. of periapsis
65.7329°
True anomaly
323.63966°
Mean anomaly
324.6738°
Eccentric anomaly
324.15836°
Mean motion
3.06437 °/min
Orbital period
117.48 mins
BSTAR
0.00017033
Loading maneuver chart data...
Computing Atmospheric mass density...
Loading historical data...
Loading historical data...
Loading historical data...
Loading historical data...
Loading historical data...
Loading historical data...
Loading historical data...

Documentation

Showing up to 5 results
|